Location: Eaton
(41.3139°N, 82.0207°W)
Time: 02:05:40
(UTC+00:00)

SL-4 R/B - Pass Details

Date: 17 June 2021
Orbit: 428 x 662 km, 51.6° (Epoch: 02 August)

Event Time Altitude Azimuth Distance (km) Brightness Sun altitude
Exits shadow 04:52:08 25° 59° (ENE) 1,031 3.6 -24.7°
Drops below altitude 10° 04:53:47 10° 56° (ENE) 1,669 4.7 -24.8°
Sets 04:55:52 0° 56° (NE) 2,516 5.7 -24.8°
